Regional Weather Roundup
Issued by NWS

Home | Current Version | Previous Version | Graphics & Text | Print | Product List | Glossary On
Versions: 1 2 3 4 5 6 7 8 9 10 11 12 13 14 15 16 17 18 19 20 21 22 23 24 25 26 27 28 29 30 31 32 33 34 35 36 37 38 39 40 41 42 43 44 45 46 47 48 49 50
470
ASUS43 KIND 160759
RWRIN

WEATHER ROUNDUP FOR INDIANA
NATIONAL WEATHER SERVICE INDIANAPOLIS IN
300 AM EST MON JAN 16 2017

NOTE: "FAIR" INDICATES FEW OR NO CLOUDS BELOW 12,000 FEET WITH NO
SIGNIFICANT WEATHER AND/OR OBSTRUCTIONS TO VISIBILITY.

* - STATION DOES NOT REPORT WEATHER SUCH AS PRECIPITATION OR FOG.

+ - STATION NOT QUALITY CONTROLLED BY THE NATIONAL WEATHER SERVICE.
    USE DATA WITH CAUTION...ESPECIALLY DEWPOINT AND RELATIVE
    HUMIDITY OBSERVATIONS.

INZ001>003-010>013-019-020-160900-
NORTHWEST INDIANA

CITY           SKY/WX    TMP DP  RH WIND       PRES   REMARKS
KNOX *+        CLOUDY    32  14  47 E3        30.29S
MONTICELLO +   CLOUDY    32  29  89 E3        30.28S

$$

LMZ046-743>745-160900-
SOUTHERN LAKE MICHIGAN

STATION/POSITION TIME  TEMP    WIND        PRES    WAVE
                       AIR SEA DIR/SP/G            HT
                 (UTC) (F)     (DEG/KT/KT) (MB)    (FT)
BURNS HARBOR     0740   33     170/  5/  7 1026.1S
MICHIGAN CITY    0730   32     110/  3/  4   N/A

$$

INZ004-005-014>016-021>024-160900-
NORTH CENTRAL INDIANA

CITY           SKY/WX    TMP DP  RH WIND       PRES   REMARKS
GOSHEN         CLOUDY    30  24  78 SE6       30.30F WCI  24
SOUTH BEND     PTCLDY    29  24  82 E5        30.30S WCI  24

$$

INZ006>009-017-018-025>027-160900-
NORTHEAST INDIANA

CITY           SKY/WX    TMP DP  RH WIND       PRES   REMARKS
ANGOLA *+      CLEAR     25  25 100 CALM      30.30S
FORT WAYNE     CLOUDY    31  27  85 SE6       30.30F WCI  25
KENDALLVILLE + CLOUDY    28  24  87 SE3       30.30S

$$

INZ028-029-035-036-043>045-051>053-160900-
WEST CENTRAL INDIANA

CITY           SKY/WX    TMP DP  RH WIND       PRES   REMARKS
CRAWFORDSVL +  CLOUDY    32  32 100 E5        30.26F FOG     WCI  27
LAFAYETTE      CLOUDY    33  31  92 E5        30.28F WCI  29
TERRE HAUTE    CLOUDY    37  34  89 SE6       30.26S FOG

$$

INZ030>032-037>040-046>048-054>057-064-065-160900-
CENTRAL INDIANA

CITY           SKY/WX    TMP DP  RH WIND       PRES   REMARKS
INDIANAPOLIS   CLOUDY    36  33  89 E7        30.27R FOG
-EAGLE CREEK   CLOUDY    36  32  85 E5        30.27R
KOKOMO +       CLOUDY    32  30  92 E7        30.30R FOG     WCI  26
MT COMFORT *+  CLOUDY    34  32  93 SE6       30.28S WCI  29
SHELBYVILLE    CLOUDY    37  33  85 E7        30.27S FOG

$$

INZ033-034-041-042-049-050-058-059-160900-
EAST CENTRAL INDIANA

CITY           SKY/WX    TMP DP  RH WIND       PRES   REMARKS
MUNCIE         CLOUDY    34  31  88 E3        30.29R FOG

$$

INZ060-061-067>069-081>083-085>088-160900-
SOUTHWEST INDIANA

CITY           SKY/WX    TMP DP  RH WIND       PRES   REMARKS
EVANSVILLE     CLOUDY    41  39  93 E5        30.25R FOG
HUNTINGBURG *+ CLOUDY    39  39 100 E5        30.25S

$$

INZ062-063-066-070>080-084-089>092-160900-
SOUTH CENTRAL AND SOUTHEAST INDIANA

CITY           SKY/WX    TMP DP  RH WIND       PRES   REMARKS
BLOOMINGTON    CLOUDY    37  35  92 SE7       30.26R FOG
MADISON *+     CLOUDY    37  37 100 E3        30.28S
SEYMOUR +      DRIZZLE   39  39 100 CALM      30.28R

$$





USA.gov is the U.S. government's official web portal to all federal, state and local government web resources and services.